PROBA-1 1 26958U 01049B 26150.14805921 .00003139 00000+0 20488-3 0 9998 2 26958 97.9600 158.0517 0054929 182.1449 177.9551 15.07418802340905 CUTE-1 (CO-55) 1 27844U 03031E 26148.99988317 .00000334 00000+0 16336-3 0 9998 2 27844 98.6738 157.8003 0008465 237.2714 122.7649 14.24322409188943 CUBESAT XI-IV (CO-57) 1 27848U 03031J 26149.96270161 .00000306 00000+0 15347-3 0 9991 2 27848 98.6767 158.4780 0008238 255.2100 104.8166 14.23610036188787 APRIZESAT 4 1 35684U 09041D 26150.18524315 .00001006 00000+0 12632-3 0 9996 2 35684 98.1414 225.1471 0043738 21.7625 338.5433 14.83851389908696 APRIZESAT 3 1 35686U 09041F 26149.37356235 .00003141 00000+0 27364-3 0 9991 2 35686 98.2039 301.6999 0063082 128.4029 232.2880 14.96173514913563 PROBA-2 1 36037U 09059B 26150.01491185 .00000258 00000+0 70641-4 0 9991 2 36037 98.2447 333.6201 0012799 342.5420 17.5335 14.54853782878881 APRIZESAT 5 1 37792U 11044E 26149.76606642 .00001406 00000+0 18443-3 0 9990 2 37792 98.2453 82.2857 0053531 62.7163 297.9486 14.81030014796060 APRIZESAT 6 1 37793U 11044F 26150.21145987 .00000914 00000+0 13591-3 0 9995 2 37793 98.2378 60.3434 0043899 142.0280 17.0950 14.76886973794492 PROBA-V 1 39159U 13021A 26149.91537511 .00000120 00000+0 70624-4 0 9993 2 39159 98.3575 129.4252 0004188 169.4077 190.7191 14.23592983678517 APRIZESAT 7 1 39416U 13066A 26150.10777935 .00001399 00000+0 14396-3 0 9999 2 39416 97.7699 103.5891 0034262 271.5006 88.2288 14.91519682678538 APRIZESAT 8 1 39425U 13066K 26149.84620927 .00001449 00000+0 16264-3 0 9998 2 39425 97.8212 97.5715 0045665 348.2604 11.7543 14.87609394676945 BUGSAT-1 (TITA) 1 40014U 14033E 26150.20893140 .00007116 00000+0 37768-3 0 9999 2 40014 98.0423 241.7092 0027053 240.6673 119.1855 15.15367665653118 SAUDISAT 4 1 40016U 14033G 26149.85865818 .00000982 00000+0 13579-3 0 9999 2 40016 97.7559 296.6302 0045912 131.8824 228.6320 14.79514422643365 APRIZESAT 9 1 40018U 14033J 26149.81354492 .00000720 00000+0 11338-3 0 9999 2 40018 97.9036 283.4638 0064783 259.1270 100.2644 14.74188215640858 APRIZESAT 10 1 40019U 14033K 26150.16740303 .00000532 00000+0 91377-4 0 9993 2 40019 97.9625 277.5312 0078116 332.2294 27.4752 14.70865514639601 TECHDEMOSAT-1 (TDS-1) 1 40076U 14037H 26149.90712369 .00011750 00000+0 66950-3 0 9993 2 40076 98.3808 140.3134 0005602 346.6245 13.4834 15.12978368645462 TECHNOSAT 1 42829U 17042E 26149.89759508 .00004360 00000+0 31160-3 0 9998 2 42829 97.4268 308.2561 0018684 151.3059 208.9200 15.04835961483951 FLYING LAPTOP 1 42831U 17042G 26150.18720150 .00003990 00000+0 31589-3 0 9999 2 42831 97.4604 306.4229 0018563 181.3935 178.7241 15.01012337483759 HAWK-A 1 43765U 18099H 26150.10135990 .00009226 00000+0 37303-3 0 9991 2 43765 97.3925 202.5747 0034445 351.9853 8.0829 15.24398209410345 HAWK-B 1 43794U 18099AN 26150.10142942 .00008641 00000+0 36956-3 0 9991 2 43794 97.3973 202.0274 0032175 10.1864 350.0017 15.22595509410286 HAWK-C 1 43799U 18099AT 26149.66011761 .00009850 00000+0 35692-3 0 9998 2 43799 97.3905 202.9611 0040146 353.5685 6.5034 15.27800766411082 SALSAT 1 46495U 20068K 26149.76373932 .00009782 00000+0 34443-3 0 9992 2 46495 97.8846 151.7113 0010040 18.2992 341.8607 15.29494640312545 HAWK-2C 1 47502U 21006CT 26150.02441872 .00008746 00000+0 26458-3 0 9991 2 47502 97.2290 194.6987 0005059 261.6044 98.4626 15.34419484296718 HAWK-2A 1 47505U 21006CW 26150.09230402 .00008402 00000+0 25417-3 0 9999 2 47505 97.2331 195.4320 0004581 267.2972 92.7747 15.34435448296728 HAWK-2B 1 47508U 21006CZ 26150.02348737 .00010083 00000+0 30394-3 0 9994 2 47508 97.2203 193.7259 0005051 264.0580 96.0088 15.34490829296712 HAWK-3B 1 48931U 21059BE 26150.01773042 .00055966 00000+0 50575-3 0 9995 2 48931 97.6667 345.0293 0004851 48.4386 311.7289 15.67940073275002 HAWK-3C 1 48948U 21059BX 26150.01744690 .00051937 00000+0 46957-3 0 9993 2 48948 97.6792 350.6834 0005337 48.5236 311.6482 15.67941264275004 HAWK-3A 1 48957U 21059CG 26150.01730779 .00052642 00000+0 47604-3 0 9990 2 48957 97.6735 347.9034 0005221 49.5839 310.5876 15.67934019275009 HAWK-5C 1 52754U 22057Y 26149.85101891 .00025311 00000+0 44197-3 0 9993 2 52754 97.6567 308.3496 0005514 135.8467 224.3225 15.50660668223502 HAWK-5B 1 52756U 22057AA 26149.85087234 .00025826 00000+0 45085-3 0 9997 2 52756 97.6575 306.6965 0006012 129.5744 230.6039 15.50660366223505 HAWK-5A 1 52757U 22057AB 26149.39892140 .00024042 00000+0 42027-3 0 9999 2 52757 97.6574 307.0487 0006018 133.9324 226.2425 15.50637574223435 HAWK-6B 1 55324U 23011A 26150.08306450 .00006365 00000+0 27495-3 0 9995 2 55324 40.4983 97.6525 0004701 268.2481 91.7790 15.22752945185083 HAWK-6C 1 55326U 23011C 26149.22986546 .00005453 00000+0 23692-3 0 9993 2 55326 40.4970 99.4688 0004745 255.3644 104.6639 15.22728113184969 HAWK-6A 1 55327U 23011D 26150.01687352 .00006551 00000+0 28275-3 0 9998 2 55327 40.4984 96.5020 0004572 258.5902 101.4394 15.22751923185085 HAWK-7A 1 56191U 23054P 26149.63399182 .00001906 00000+0 74288-4 0 9997 2 56191 97.2719 37.4437 0004858 96.3252 263.8541 15.27139118174198 HAWK-7B 1 56193U 23054R 26150.15812307 .00008442 00000+0 31970-3 0 9999 2 56193 97.2756 36.2122 0003975 102.3713 257.7972 15.27150862174276 HAWK-7C 1 56200U 23054Y 26149.63380663 .00007289 00000+0 27651-3 0 9993 2 56200 97.2735 36.4755 0004176 95.9910 264.1806 15.27139207174195